Location: Griffin Ranch
(33.6186°N, 110.6622°W)
Time: 02:26:12
(UTC-07:00)

Cosmos 1812 - Visible Passes

Search period start: 19 August 2017 00:00
Search period end: 29 August 2017 00:00
Orbit: 521 x 523 km, 82.5° (Epoch: 18 August)

Date Brightness Start Highest point End Pass type
(mag) Time Alt. Az. Time Alt. Az. Time Alt. Az.
19 Aug 4.0 19:55:05 10° NNW 19:58:46 42° W 20:02:25 10° SSW visible
20 Aug 3.7 19:42:04 10° NNW 19:45:49 50° W 19:49:33 10° S visible
21 Aug 3.4 19:29:03 10° NNW 19:32:53 60° W 19:36:41 10° S visible
